Time,TemperatureF,DewpointF,PressureIn,WindDirection,WindDirectionDegrees,WindSpeedMPH,WindSpeedGustMPH,Humidity,HourlyPrecipIn,Conditions,Clouds,dailyrainin,SoftwareType,DateUTC
2013-01-07 00:04:00,28.2,27.0,30.11,SW,225,0.0,-999.0,95,-99.99,,,0.00,Acu-Link.com,2013-01-07 05:04:00,
2013-01-07 00:19:00,27.7,26.5,30.12,WNW,292,0.0,-999.0,95,-99.99,,,0.00,Acu-Link.com,2013-01-07 05:19:00,
2013-01-07 00:34:00,27.3,26.1,30.12,WNW,292,0.0,-999.0,95,-99.99,,,0.00,Acu-Link.com,2013-01-07 05:34:00,
2013-01-07 00:50:00,27.1,25.9,30.12,ENE,67,0.0,-999.0,95,-99.99,,,0.00,Acu-Link.com,2013-01-07 05:50:00,
2013-01-07 01:05:00,27.1,25.9,30.11,WSW,247,0.0,-999.0,95,-99.99,,,0.00,Acu-Link.com,2013-01-07 06:05:00,
2013-01-07 01:20:00,27.0,25.8,30.11,NW,315,0.0,-999.0,95,-99.99,,,0.00,Acu-Link.com,2013-01-07 06:20:00,
2013-01-07 01:35:00,27.1,26.1,30.11,NNE,22,0.0,-999.0,96,-99.99,,,0.00,Acu-Link.com,2013-01-07 06:35:00,
2013-01-07 01:50:00,26.6,25.6,30.11,East,90,0.0,-999.0,96,-99.99,,,0.00,Acu-Link.com,2013-01-07 06:50:00,
2013-01-07 02:05:00,27.0,26.0,30.11,South,180,0.0,-999.0,96,-99.99,,,0.00,Acu-Link.com,2013-01-07 07:05:00,
2013-01-07 02:21:00,26.6,25.6,30.13,NE,45,0.0,-999.0,96,-99.99,,,0.00,Acu-Link.com,2013-01-07 07:21:00,
2013-01-07 02:36:00,26.6,25.6,30.13,WNW,292,0.0,-999.0,96,-99.99,,,0.00,Acu-Link.com,2013-01-07 07:36:00,
2013-01-07 02:51:00,26.1,25.1,30.12,WNW,292,0.0,-999.0,96,-99.99,,,0.00,Acu-Link.com,2013-01-07 07:51:00,
2013-01-07 03:06:00,26.1,25.1,30.13,NW,315,0.0,-999.0,96,-99.99,,,0.00,Acu-Link.com,2013-01-07 08:06:00,
2013-01-07 03:21:00,25.9,24.9,30.14,NE,45,0.0,-999.0,96,-99.99,,,0.00,Acu-Link.com,2013-01-07 08:21:00,
2013-01-07 03:36:00,26.2,25.2,30.15,NW,315,0.0,-999.0,96,-99.99,,,0.00,Acu-Link.com,2013-01-07 08:36:00,
2013-01-07 03:51:00,26.2,25.5,30.15,ENE,67,0.0,-999.0,97,-99.99,,,0.00,Acu-Link.com,2013-01-07 08:51:00,
2013-01-07 04:08:00,26.1,25.4,30.15,ENE,67,0.0,-999.0,97,-99.99,,,0.00,Acu-Link.com,2013-01-07 09:08:00,
2013-01-07 04:24:00,26.1,25.4,30.15,ENE,67,0.0,-999.0,97,-99.99,,,0.00,Acu-Link.com,2013-01-07 09:24:00,
2013-01-07 04:39:00,25.7,25.0,30.16,NE,45,0.0,-999.0,97,-99.99,,,0.00,Acu-Link.com,2013-01-07 09:39:00,
2013-01-07 04:54:00,25.5,24.8,30.17,WNW,292,0.0,-999.0,97,-99.99,,,0.00,Acu-Link.com,2013-01-07 09:54:00,
2013-01-07 05:09:00,25.5,24.8,30.16,SSW,202,0.0,-999.0,97,-99.99,,,0.00,Acu-Link.com,2013-01-07 10:09:00,
2013-01-07 05:24:00,25.2,24.5,30.17,East,90,0.0,-999.0,97,-99.99,,,0.00,Acu-Link.com,2013-01-07 10:24:00,
2013-01-07 05:39:00,25.2,24.5,30.18,SSW,202,0.0,-999.0,97,-99.99,,,0.00,Acu-Link.com,2013-01-07 10:39:00,
2013-01-07 05:54:00,24.8,24.1,30.17,ESE,112,0.0,-999.0,97,-99.99,,,0.00,Acu-Link.com,2013-01-07 10:54:00,
2013-01-07 06:09:00,24.4,23.4,30.18,NNW,337,0.0,-999.0,96,-99.99,,,0.00,Acu-Link.com,2013-01-07 11:09:00,
2013-01-07 06:24:00,24.3,23.3,30.19,WNW,292,0.0,-999.0,96,-99.99,,,0.00,Acu-Link.com,2013-01-07 11:24:00,
2013-01-07 06:40:00,23.7,22.7,30.20,NE,45,0.0,-999.0,96,-99.99,,,0.00,Acu-Link.com,2013-01-07 11:40:00,
2013-01-07 06:55:00,23.7,22.7,30.20,NE,45,0.0,-999.0,96,-99.99,,,0.00,Acu-Link.com,2013-01-07 11:55:00,
2013-01-07 07:10:00,23.5,22.5,30.21,WNW,292,0.0,-999.0,96,-99.99,,,0.00,Acu-Link.com,2013-01-07 12:10:00,
2013-01-07 07:25:00,24.1,23.1,30.21,WNW,292,0.0,-999.0,96,-99.99,,,0.00,Acu-Link.com,2013-01-07 12:25:00,
2013-01-07 07:40:00,23.7,22.7,30.21,West,270,0.0,-999.0,96,-99.99,,,0.00,Acu-Link.com,2013-01-07 12:40:00,
2013-01-07 07:55:00,23.7,22.7,30.22,NW,315,0.0,-999.0,96,-99.99,,,0.00,Acu-Link.com,2013-01-07 12:55:00,
2013-01-07 08:10:00,24.8,23.8,30.23,SSE,157,0.0,-999.0,96,-99.99,,,0.00,Acu-Link.com,2013-01-07 13:10:00,
2013-01-07 08:25:00,30.0,29.5,30.24,ESE,112,1.7,-999.0,98,-99.99,,,0.00,Acu-Link.com,2013-01-07 13:25:00,
2013-01-07 08:40:00,34.5,34.0,30.24,ESE,112,0.0,-999.0,98,-99.99,,,0.00,Acu-Link.com,2013-01-07 13:40:00,
2013-01-07 08:56:00,38.3,37.5,30.25,East,90,0.0,-999.0,97,-99.99,,,0.00,Acu-Link.com,2013-01-07 13:56:00,
2013-01-07 09:11:00,41.2,38.5,30.26,ESE,112,0.0,-999.0,90,-99.99,,,0.00,Acu-Link.com,2013-01-07 14:11:00,
2013-01-07 09:26:00,40.6,36.2,30.27,NE,45,2.7,-999.0,84,-99.99,,,0.01,Acu-Link.com,2013-01-07 14:26:00,
2013-01-07 09:41:00,43.5,35.1,30.28,ESE,112,2.7,-999.0,72,-99.99,,,0.01,Acu-Link.com,2013-01-07 14:41:00,
2013-01-07 09:56:00,45.1,34.8,30.29,ENE,67,2.2,-999.0,67,-99.99,,,0.01,Acu-Link.com,2013-01-07 14:56:00,
2013-01-07 10:11:00,47.1,34.8,30.29,ENE,67,3.7,-999.0,62,-99.99,,,0.01,Acu-Link.com,2013-01-07 15:11:00,
2013-01-07 10:26:00,48.9,35.2,30.30,SE,135,5.3,-999.0,59,-99.99,,,0.01,Acu-Link.com,2013-01-07 15:26:00,
2013-01-07 10:42:00,49.8,34.7,30.30,NNW,337,0.0,-999.0,56,-99.99,,,0.01,Acu-Link.com,2013-01-07 15:42:00,
2013-01-07 10:57:00,50.5,34.5,30.31,ENE,67,4.7,-999.0,54,-99.99,,,0.01,Acu-Link.com,2013-01-07 15:57:00,
2013-01-07 11:12:00,50.5,34.0,30.30,East,90,3.7,-999.0,53,-99.99,,,0.01,Acu-Link.com,2013-01-07 16:12:00,
2013-01-07 11:27:00,50.9,33.9,30.30,ESE,112,4.2,-999.0,52,-99.99,,,0.01,Acu-Link.com,2013-01-07 16:27:00,
2013-01-07 11:42:00,51.4,33.9,30.29,ENE,67,2.7,-999.0,51,-99.99,,,0.01,Acu-Link.com,2013-01-07 16:42:00,
2013-01-07 11:57:00,51.4,32.9,30.29,ESE,112,4.7,-999.0,49,-99.99,,,0.01,Acu-Link.com,2013-01-07 16:57:00,
2013-01-07 12:12:00,52.3,33.7,30.28,ENE,67,4.2,-999.0,49,-99.99,,,0.01,Acu-Link.com,2013-01-07 17:12:00,
2013-01-07 12:27:00,52.7,33.0,30.26,NNW,337,2.2,-999.0,47,-99.99,,,0.01,Acu-Link.com,2013-01-07 17:27:00,
2013-01-07 12:42:00,53.4,33.1,30.26,ENE,67,4.7,-999.0,46,-99.99,,,0.01,Acu-Link.com,2013-01-07 17:42:00,
2013-01-07 12:58:00,54.1,33.8,30.25,NE,45,4.2,-999.0,46,-99.99,,,0.01,Acu-Link.com,2013-01-07 17:58:00,
2013-01-07 13:13:00,53.8,33.0,30.25,East,90,5.8,-999.0,45,-99.99,,,0.01,Acu-Link.com,2013-01-07 18:13:00,
2013-01-07 13:28:00,54.0,33.1,30.24,NE,45,4.7,-999.0,45,-99.99,,,0.01,Acu-Link.com,2013-01-07 18:28:00,
2013-01-07 13:43:00,54.9,34.0,30.23,NNE,22,5.8,-999.0,45,-99.99,,,0.01,Acu-Link.com,2013-01-07 18:43:00,
2013-01-07 13:58:00,52.7,32.0,30.23,WNW,292,2.7,-999.0,45,-99.99,,,0.01,Acu-Link.com,2013-01-07 18:58:00,
2013-01-07 14:13:00,52.2,32.1,30.23,SE,135,3.7,-999.0,46,-99.99,,,0.01,Acu-Link.com,2013-01-07 19:13:00,
2013-01-07 14:28:00,52.7,33.6,30.23,ENE,67,6.3,-999.0,48,-99.99,,,0.01,Acu-Link.com,2013-01-07 19:28:00,
2013-01-07 14:43:00,52.7,33.0,30.23,SW,225,2.2,-999.0,47,-99.99,,,0.01,Acu-Link.com,2013-01-07 19:43:00,
2013-01-07 14:58:00,52.2,33.6,30.23,SE,135,4.2,-999.0,49,-99.99,,,0.01,Acu-Link.com,2013-01-07 19:58:00,
2013-01-07 15:14:00,52.0,32.9,30.23,SSW,202,3.7,-999.0,48,-99.99,,,0.01,Acu-Link.com,2013-01-07 20:14:00,
2013-01-07 15:29:00,51.8,33.3,30.24,West,270,0.0,-999.0,49,-99.99,,,0.01,Acu-Link.com,2013-01-07 20:29:00,
2013-01-07 15:44:00,51.3,32.8,30.24,ESE,112,2.7,-999.0,49,-99.99,,,0.01,Acu-Link.com,2013-01-07 20:44:00,
2013-01-07 15:59:00,51.3,32.8,30.23,SE,135,2.7,-999.0,49,-99.99,,,0.01,Acu-Link.com,2013-01-07 20:59:00,
2013-01-07 16:14:00,51.3,32.8,30.24,East,90,3.7,-999.0,49,-99.99,,,0.01,Acu-Link.com,2013-01-07 21:14:00,
2013-01-07 16:29:00,50.9,32.4,30.25,East,90,2.7,-999.0,49,-99.99,,,0.01,Acu-Link.com,2013-01-07 21:29:00,
2013-01-07 16:44:00,50.4,32.5,30.25,East,90,2.7,-999.0,50,-99.99,,,0.01,Acu-Link.com,2013-01-07 21:44:00,
2013-01-07 17:00:00,50.0,32.6,30.25,ESE,112,3.2,-999.0,51,-99.99,,,0.01,Acu-Link.com,2013-01-07 22:00:00,
2013-01-07 17:15:00,49.1,32.7,30.26,ESE,112,1.7,-999.0,53,-99.99,,,0.01,Acu-Link.com,2013-01-07 22:15:00,
2013-01-07 17:30:00,46.8,33.2,30.26,WNW,292,0.0,-999.0,59,-99.99,,,0.01,Acu-Link.com,2013-01-07 22:30:00,
2013-01-07 17:45:00,44.1,33.1,30.25,NE,45,0.0,-999.0,65,-99.99,,,0.01,Acu-Link.com,2013-01-07 22:45:00,
2013-01-07 18:00:00,41.9,33.2,30.26,NNE,22,0.0,-999.0,71,-99.99,,,0.01,Acu-Link.com,2013-01-07 23:00:00,
2013-01-07 18:15:00,39.7,31.8,30.26,NNE,22,0.0,-999.0,73,-99.99,,,0.01,Acu-Link.com,2013-01-07 23:15:00,
2013-01-07 18:30:00,38.3,31.7,30.26,NNE,22,0.0,-999.0,77,-99.99,,,0.01,Acu-Link.com,2013-01-07 23:30:00,
2013-01-07 18:45:00,36.7,30.8,30.27,NNE,22,0.0,-999.0,79,-99.99,,,0.01,Acu-Link.com,2013-01-07 23:45:00,
2013-01-07 19:01:00,35.4,30.2,30.27,NNE,22,0.0,-999.0,81,-99.99,,,0.01,Acu-Link.com,2013-01-08 00:01:00,
2013-01-07 19:16:00,34.3,29.7,30.27,NNE,22,0.0,-999.0,83,-99.99,,,0.01,Acu-Link.com,2013-01-08 00:16:00,
2013-01-07 19:31:00,33.8,29.8,30.27,NNE,22,0.0,-999.0,85,-99.99,,,0.01,Acu-Link.com,2013-01-08 00:31:00,
2013-01-07 19:46:00,33.1,29.4,30.28,NNE,22,0.0,-999.0,86,-99.99,,,0.01,Acu-Link.com,2013-01-08 00:46:00,
2013-01-07 20:01:00,32.5,29.1,30.27,NNE,22,0.0,-999.0,87,-99.99,,,0.01,Acu-Link.com,2013-01-08 01:01:00,
2013-01-07 20:16:00,32.0,28.9,30.26,NNE,22,0.0,-999.0,88,-99.99,,,0.01,Acu-Link.com,2013-01-08 01:16:00,
2013-01-07 20:32:00,31.6,28.7,30.27,NNE,22,0.0,-999.0,89,-99.99,,,0.01,Acu-Link.com,2013-01-08 01:32:00,
2013-01-07 20:47:00,30.9,28.3,30.27,NNE,22,0.0,-999.0,90,-99.99,,,0.01,Acu-Link.com,2013-01-08 01:47:00,
2013-01-07 21:02:00,30.2,27.6,30.27,NNE,22,0.0,-999.0,90,-99.99,,,0.01,Acu-Link.com,2013-01-08 02:02:00,
2013-01-07 21:17:00,29.7,27.1,30.27,NNE,22,0.0,-999.0,90,-99.99,,,0.01,Acu-Link.com,2013-01-08 02:17:00,
2013-01-07 21:32:00,29.1,26.8,30.28,NNE,22,0.0,-999.0,91,-99.99,,,0.01,Acu-Link.com,2013-01-08 02:32:00,
2013-01-07 21:47:00,28.6,26.3,30.27,NNE,22,0.0,-999.0,91,-99.99,,,0.01,Acu-Link.com,2013-01-08 02:47:00,
2013-01-07 22:02:00,28.0,26.0,30.26,ENE,67,0.0,-999.0,92,-99.99,,,0.01,Acu-Link.com,2013-01-08 03:02:00,
2013-01-07 22:17:00,27.7,25.7,30.27,NW,315,0.0,-999.0,92,-99.99,,,0.01,Acu-Link.com,2013-01-08 03:17:00,
2013-01-07 22:32:00,27.3,25.3,30.28,NE,45,0.0,-999.0,92,-99.99,,,0.01,Acu-Link.com,2013-01-08 03:32:00,
2013-01-07 22:47:00,27.1,25.1,30.27,ESE,112,0.0,-999.0,92,-99.99,,,0.01,Acu-Link.com,2013-01-08 03:47:00,
2013-01-07 23:03:00,26.8,24.8,30.28,NNW,337,0.0,-999.0,92,-99.99,,,0.01,Acu-Link.com,2013-01-08 04:03:00,
2013-01-07 23:18:00,26.6,24.9,30.28,WNW,292,0.0,-999.0,93,-99.99,,,0.01,Acu-Link.com,2013-01-08 04:18:00,
2013-01-07 23:33:00,26.4,24.7,30.29,NNW,337,0.0,-999.0,93,-99.99,,,0.01,Acu-Link.com,2013-01-08 04:33:00,
2013-01-07 23:48:00,26.1,24.4,30.28,NNW,337,0.0,-999.0,93,-99.99,,,0.01,Acu-Link.com,2013-01-08 04:48:00,